Date,TemperatureHighF,TemperatureAvgF,TemperatureLowF,DewpointHighF,DewpointAvgF,DewpointLowF,HumidityHigh,HumidityAvg,HumidityLow,PressureMaxIn,PressureMinIn,WindSpeedMaxMPH,WindSpeedAvgMPH,GustSpeedMaxMPH,PrecipitationSumIn
2014-1-1,5,0,-12,0,-9,-21,81,67,49,30.48,30.09,5,1,19,0.00
2014-1-2,-8,-10,-12,-16,-20,-24,70,62,52,30.47,30.11,8,5,19,0.00
2014-1-3,-2,-7,-15,-14,-17,-23,72,63,52,30.39,30.10,6,2,19,0.00
2014-1-4,32,14,-16,10,-4,-24,74,49,25,30.32,29.92,7,3,19,0.00
2014-1-5,32,29,25,30,20,10,94,71,41,30.11,29.56,6,2,19,0.01
2014-1-6,44,30,16,42,23,6,97,78,57,29.50,29.12,16,6,19,0.01
2014-1-7,15,8,6,7,-6,-11,78,51,41,30.01,29.46,12,8,20,0.00
2014-1-8,19,13,8,6,0,-5,64,57,46,30.31,30.02,8,5,19,0.00
2014-1-9,23,15,2,6,4,-2,80,62,45,30.57,30.43,3,1,8,0.00
2014-1-10,33,19,2,27,14,-3,85,81,75,30.43,30.04,1,0,8,0.01
2014-1-11,51,36,26,48,34,22,98,92,84,30.00,29.04,15,3,15,0.02
2014-1-12,41,39,37,37,33,29,85,79,67,29.55,29.15,10,8,19,0.04
2014-1-13,50,42,29,28,25,23,84,54,40,29.77,29.62,8,4,8,0.00
2014-1-14,42,39,32,41,35,24,96,86,67,29.74,29.57,3,1,4,0.07
2014-1-15,36,32,25,34,25,21,93,77,65,29.88,29.73,7,3,7,0.01
2014-1-16,35,29,24,24,21,15,89,70,49,29.93,29.84,4,1,4,0.00
2014-1-17,34,29,24,30,24,20,89,82,74,29.84,29.73,4,1,7,0.01
2014-1-18,35,26,14,29,22,12,93,87,68,29.77,29.66,3,0,4,0.01
2014-1-19,28,28,27,26,25,24,90,89,88,29.66,29.65,6,4,6,0.00
2014-1-20,12,5,-4,8,-5,-13,83,65,53,30.00,29.55,5,2,6,0.00
2014-1-21,0,-9,-20,-14,-19,-28,72,63,47,30.15,30.01,3,1,5,0.00
2014-1-22,0,-12,-25,-14,-23,-33,70,60,47,30.13,29.96,2,0,4,0.00
2014-1-23,4,0,-5,-10,-12,-14,68,56,50,30.23,30.09,4,2,7,0.00
2014-1-24,18,3,-12,5,-9,-19,71,58,40,30.28,29.62,9,4,15,0.00
2014-1-25,25,20,3,19,8,-7,85,59,44,29.61,29.16,11,8,15,0.00
2014-1-26,10,2,-7,1,-10,-19,76,58,41,29.73,29.41,6,2,8,0.00
2014-1-27,22,13,5,18,2,-16,88,62,35,29.94,29.21,12,4,15,0.00
2014-1-28,14,7,0,5,-7,-18,72,52,35,30.15,29.95,11,6,18,0.00
2014-1-29,15,11,7,7,0,-5,74,63,55,30.07,29.84,13,6,21,0.00
2014-1-30,28,19,8,9,4,0,76,53,36,30.21,29.78,11,3,14,0.00
2014-1-31,36,31,25,24,16,2,70,56,28,30.09,29.73,13,5,14,0.00
2014-2-1,32,23,8,31,18,5,96,82,65,30.19,29.75,4,1,7,0.00
2014-2-2,35,30,26,33,26,21,96,84,69,30.11,29.72,5,2,7,0.02
2014-2-3,26,17,10,21,9,3,84,70,51,30.28,30.12,5,1,7,0.02
2014-2-4,25,18,13,15,9,6,86,71,52,30.43,30.27,4,1,7,0.02
2014-2-5,18,16,8,15,11,0,89,81,71,30.28,29.82,8,3,10,0.00
2014-2-6,18,7,-8,12,0,-14,82,73,56,30.27,30.06,7,2,11,0.00
2014-2-7,19,16,13,11,8,4,79,69,57,30.13,30.04,11,6,19,0.00
2014-2-8,23,16,11,12,6,1,79,64,50,30.18,30.10,8,5,18,0.00
2014-2-9,23,17,14,14,10,7,88,75,50,30.11,29.93,3,1,18,0.00
2014-2-10,22,14,3,12,7,-2,88,73,49,30.17,29.94,4,1,18,0.00
2014-2-11,15,6,-10,3,-5,-17,81,64,42,30.48,30.18,5,1,18,0.00
2014-2-12,21,0,-19,2,-10,-27,76,62,41,30.52,30.18,2,0,18,0.00
2014-2-13,22,12,-7,15,4,-13,84,70,56,30.17,29.46,9,3,18,0.00
2014-2-14,23,22,20,20,19,16,91,89,83,29.61,29.20,6,3,10,0.00
2014-2-15,29,22,12,22,17,7,90,82,72,29.80,29.63,4,1,6,0.01
2014-2-16,18,10,3,6,-1,-7,78,62,48,30.10,29.80,6,2,10,0.00
2014-2-17,19,4,-8,-4,-9,-16,74,55,31,30.40,30.12,2,0,7,0.00
2014-2-18,28,15,-9,24,9,-15,87,76,57,30.18,29.86,5,2,14,0.00
2014-2-19,34,29,20,28,22,17,87,76,64,29.90,29.52,4,1,6,0.00
2014-2-20,38,33,27,33,28,22,95,83,75,30.08,29.83,6,2,8,0.04
2014-2-21,40,36,34,39,33,27,96,91,64,29.93,29.47,10,4,12,0.09
2014-2-22,44,37,30,26,20,13,67,50,34,29.78,29.57,20,9,23,0.09
2014-2-23,37,31,26,20,15,12,68,53,39,29.85,29.72,10,5,11,0.00
2014-2-24,25,21,17,16,7,0,82,54,41,29.93,29.76,9,4,15,0.00
2014-2-25,20,14,7,9,5,1,78,65,55,29.93,29.80,5,1,9,0.00
2014-2-26,15,12,4,10,-1,-9,84,58,43,29.79,29.66,11,5,19,0.01
2014-2-27,20,13,5,10,1,-7,80,60,42,29.87,29.43,8,4,18,0.01
2014-2-28,14,6,-3,-5,-11,-17,62,47,24,30.34,29.89,5,2,8,0.01
2014-3-1,32,18,-4,24,3,-13,89,54,28,30.29,29.93,7,2,7,0.04
2014-3-2,23,14,-3,19,2,-11,89,60,34,30.17,29.99,6,2,9,0.07
2014-3-3,11,4,-6,-6,-12,-16,76,50,31,30.29,30.05,5,2,13,0.00
2014-3-4,18,10,0,10,-1,-12,82,61,41,30.30,30.22,7,2,8,0.01
2014-3-5,16,10,-5,8,2,-11,83,72,51,30.57,30.22,7,2,9,0.01
2014-3-6,20,2,-16,-1,-12,-24,74,56,28,30.68,30.36,3,0,6,0.00
2014-3-7,40,16,-11,18,2,-18,79,57,32,30.34,29.80,6,1,8,0.00
2014-3-8,36,29,18,27,16,5,85,59,36,29.92,29.74,8,2,11,0.00
2014-3-9,29,21,6,21,7,0,87,57,36,30.02,29.76,7,2,11,0.01
2014-3-10,40,32,25,34,26,22,93,80,56,29.75,29.35,4,2,11,0.08
2014-3-11,45,39,34,35,31,27,92,73,50,29.64,29.33,6,3,11,0.08
2014-3-12,37,24,13,28,18,10,89,77,61,29.70,29.50,12,7,14,0.07
2014-3-13,17,12,5,9,-1,-6,85,58,44,29.92,29.55,11,4,14,0.07
2014-3-14,48,28,8,26,13,-3,67,55,42,29.95,29.45,10,4,14,0.00
2014-3-15,47,36,23,36,28,11,88,72,46,29.96,29.40,12,5,14,0.01
2014-3-16,22,12,4,10,-3,-9,63,49,34,30.27,29.97,8,4,14,0.01
2014-3-17,23,10,-7,1,-6,-14,73,52,30,30.21,30.08,4,1,14,0.00
2014-3-18,29,17,0,7,2,-6,75,53,35,30.24,30.13,7,3,14,0.00
2014-3-19,36,26,17,32,15,5,89,63,51,30.19,29.68,5,2,14,0.00
2014-3-20,41,36,32,38,32,28,93,86,67,29.66,29.48,10,6,14,0.05
2014-3-21,39,33,28,30,20,12,92,61,33,29.95,29.64,7,4,14,0.05
2014-3-22,35,30,24,30,24,18,93,80,70,29.94,29.50,8,2,14,0.26
2014-3-23,34,18,7,25,3,-5,88,54,31,30.16,29.83,8,4,14,0.02
2014-3-24,28,13,-4,7,-2,-10,77,55,30,30.19,30.01,6,2,14,0.00
2014-3-25,34,23,3,17,8,-2,82,56,34,30.00,29.84,8,2,14,0.00
2014-3-26,31,22,14,23,6,-3,86,54,30,30.13,29.84,8,4,14,0.01
2014-3-27,32,20,6,18,5,-4,71,53,35,30.26,29.98,6,2,14,0.00
2014-3-28,49,39,26,42,35,19,94,86,71,29.98,29.61,7,3,14,0.10
2014-3-29,39,36,34,36,28,21,89,72,58,30.24,30.01,9,4,14,0.10
2014-3-30,34,32,29,32,29,25,96,88,68,30.01,29.87,11,8,14,0.40
2014-3-31,46,35,28,27,24,22,84,65,41,30.15,29.99,6,2,14,0.00
2014-4-1,40,33,22,24,20,17,91,63,39,30.15,29.79,9,3,14,0.00
2014-4-2,44,39,31,32,28,22,80,63,54,30.04,29.80,11,6,16,0.00
2014-4-3,39,33,27,28,22,18,79,63,46,30.16,30.05,5,1,14,0.00
2014-4-4,38,33,24,36,26,18,96,75,57,30.10,29.49,10,3,15,0.48
2014-4-5,44,38,34,40,30,22,96,71,59,29.95,29.48,11,7,19,0.48
2014-4-6,46,38,31,26,23,19,74,56,41,30.09,29.95,9,5,14,0.00
2014-4-7,52,40,27,32,25,22,83,59,31,30.08,29.70,6,1,14,0.02
2014-4-8,41,39,37,39,37,35,97,95,90,29.64,29.15,8,3,8,0.12
2014-4-9,42,37,29,37,22,10,93,58,30,29.85,29.52,7,3,11,0.12
2014-4-10,65,52,29,45,30,23,81,46,28,29.86,29.53,14,7,19,0.04
2014-4-11,57,48,35,47,35,24,93,65,29,29.95,29.66,7,3,12,0.14
2014-4-12,60,47,33,36,30,24,84,53,28,30.12,29.94,7,2,10,0.00
2014-4-13,54,45,39,45,38,32,90,78,71,30.10,29.72,8,3,16,0.00
2014-4-14,81,56,37,59,48,36,97,79,34,29.78,29.41,12,4,14,0.27
2014-4-15,60,41,25,58,37,14,97,88,63,29.95,29.33,9,4,12,0.10
2014-4-16,36,27,20,18,12,6,69,53,35,30.55,29.97,7,4,12,0.10
2014-4-17,49,37,22,24,20,16,85,53,32,30.66,30.41,8,2,11,0.00
2014-4-18,55,46,36,42,28,18,90,51,30,30.41,30.09,5,2,10,0.13
2014-4-19,51,44,35,42,32,20,93,66,31,30.38,30.09,8,4,13,0.14
2014-4-20,64,46,30,37,25,18,88,51,19,30.43,30.09,5,1,10,0.00
2014-4-21,66,56,45,48,36,29,90,49,30,30.08,29.68,9,3,10,0.00
2014-4-22,57,52,47,52,48,45,95,88,69,29.67,29.35,5,1,10,0.08
2014-4-23,49,45,41,46,34,16,94,68,36,29.80,29.44,9,6,19,0.11
2014-4-24,53,43,34,22,18,13,56,38,21,29.97,29.81,9,5,14,0.00
2014-4-25,56,45,30,28,22,16,77,43,25,30.00,29.65,8,4,16,0.00
2014-4-26,48,43,41,42,38,26,94,84,42,29.81,29.59,4,1,16,0.02
2014-4-27,50,45,39,40,36,33,93,74,51,30.10,29.82,7,3,16,0.05
2014-4-28,56,49,42,40,35,30,78,61,43,30.13,30.05,9,4,16,0.00
2014-4-29,62,51,43,45,38,31,94,66,34,30.26,30.09,9,4,16,0.23
2014-4-30,47,45,42,46,43,40,97,92,82,30.26,29.87,5,2,16,0.75
2014-5-1,61,51,44,55,46,41,97,84,51,29.84,29.57,13,4,16,0.97
2014-5-2,57,51,47,46,41,39,89,69,51,29.68,29.55,10,6,16,0.02
2014-5-3,50,50,50,45,44,44,83,81,79,29.68,29.66,6,5,16,0.00
2014-5-4,51,48,44,47,42,35,92,80,64,29.88,29.47,7,4,22,0.04
2014-5-5,56,50,44,40,35,28,70,57,42,29.93,29.81,7,2,22,0.00
2014-5-6,57,48,37,33,29,24,80,52,28,30.16,29.92,7,2,18,0.00
2014-5-7,61,54,43,37,29,22,67,40,23,30.21,30.09,4,1,8,0.00
2014-5-8,64,53,39,36,32,26,84,48,26,30.13,30.03,9,4,11,0.00
2014-5-9,71,60,50,61,44,31,92,57,40,30.05,29.66,7,3,8,0.06
2014-5-10,73,67,59,62,52,40,93,62,35,29.73,29.59,15,8,15,0.10
2014-5-11,69,60,50,43,40,34,72,48,30,29.91,29.74,13,6,19,0.00
2014-5-12,72,60,50,54,43,37,84,55,34,30.04,29.91,8,2,20,0.00
2014-5-13,62,55,48,55,44,37,91,68,48,30.11,29.95,8,4,13,0.04
2014-5-14,79,68,56,67,61,53,92,80,57,30.02,29.92,7,2,8,0.03
2014-5-15,91,76,60,65,59,48,96,61,24,29.96,29.77,13,5,18,0.05
2014-5-16,74,65,49,64,58,48,96,80,63,29.82,29.67,7,3,12,1.09
2014-5-17,58,50,45,48,42,38,96,76,50,30.05,29.77,8,5,10,1.10
2014-5-18,60,52,40,39,35,29,88,57,31,30.16,30.05,6,2,10,0.00
2014-5-19,70,57,45,46,40,34,85,57,28,30.12,30.00,4,1,10,0.00
2014-5-20,75,60,46,48,42,33,92,58,23,30.08,29.91,3,1,5,0.00
2014-5-21,75,69,60,50,45,40,62,43,29,29.87,29.75,7,3,13,0.00
2014-5-22,69,62,57,56,51,44,84,67,54,29.77,29.71,7,3,11,0.00
2014-5-23,68,62,55,56,54,52,94,76,56,29.91,29.77,6,2,8,0.09
2014-5-24,72,61,54,57,54,51,96,82,50,30.01,29.90,5,1,5,0.11
2014-5-25,77,63,49,57,52,47,96,70,42,29.98,29.83,8,3,12,0.11
2014-5-26,80,73,59,57,55,53,89,55,43,29.82,29.67,8,4,13,0.03
2014-5-27,67,62,58,57,54,52,87,76,64,29.74,29.68,8,3,10,0.00
2014-5-28,60,57,51,51,50,48,95,78,67,30.11,29.94,9,6,14,0.00
2014-5-29,69,60,51,50,48,41,92,65,46,30.13,30.02,4,1,5,0.00
2014-5-30,73,66,54,57,46,36,88,51,27,30.08,29.97,9,4,15,0.10
2014-5-31,70,61,47,51,44,41,85,57,37,30.22,30.09,6,2,6,0.10
2014-6-1,55,53,52,49,48,48,87,84,82,30.22,30.21,0,0,2,0.00
2014-6-2,86,81,73,66,60,54,75,50,36,29.97,29.80,8,4,15,0.00
2014-6-3,80,74,70,71,67,63,94,81,66,29.81,29.63,8,3,15,0.15
2014-6-4,72,66,60,54,51,49,73,58,46,29.74,29.63,10,4,15,0.15
2014-6-5,63,59,56,56,54,51,93,83,69,29.73,29.62,2,1,15,0.04
2014-6-6,72,62,54,56,54,51,92,76,57,29.87,29.72,5,2,15,0.04
2014-6-7,84,70,56,58,51,43,86,57,24,29.92,29.80,5,2,15,0.00
2014-6-8,82,66,55,55,51,48,84,62,31,29.86,29.79,4,1,15,0.00
2014-6-9,82,76,66,61,59,55,78,57,41,29.91,29.83,6,2,15,0.00
2014-6-10,77,68,61,63,57,48,94,70,39,29.97,29.86,7,2,15,0.04
2014-6-11,74,62,58,60,57,53,96,84,57,29.98,29.91,5,1,15,0.95
2014-6-12,70,66,58,66,63,57,97,90,81,29.90,29.77,5,2,15,0.04
2014-6-13,75,68,64,70,66,62,96,93,80,29.76,29.59,4,1,15,0.11
2014-6-16,76,72,64,63,59,55,91,64,49,30.06,29.89,3,1,15,0.00
2014-6-17,84,70,58,68,61,56,95,76,40,29.96,29.54,5,2,15,0.69
2014-6-18,80,70,63,66,61,56,96,75,47,29.91,29.54,6,3,15,0.73
2014-6-19,74,66,59,57,49,43,77,56,35,30.03,29.91,7,3,15,0.00
2014-6-20,70,63,55,54,45,41,77,53,37,30.01,29.90,6,2,15,0.00
2014-6-21,74,63,52,54,50,44,92,66,35,29.93,29.83,4,1,15,0.00
2014-6-22,77,66,52,57,52,49,92,65,38,29.92,29.85,3,1,15,0.00
2014-6-23,83,70,54,61,55,47,91,62,29,30.00,29.88,3,0,15,0.00
2014-6-24,79,72,68,71,66,61,94,82,70,29.89,29.72,7,3,15,0.15
2014-6-25,73,69,66,69,66,64,97,88,75,29.85,29.74,5,2,15,0.20
2014-6-26,80,71,64,64,61,59,91,72,49,29.94,29.80,5,1,15,0.09
2014-6-27,85,71,58,63,57,44,95,67,24,30.08,29.95,2,0,15,0.09
2014-6-28,87,72,58,68,59,50,91,66,28,30.18,30.07,2,0,2,0.00
2014-6-29,90,78,63,72,64,59,88,66,41,30.08,29.87,5,2,6,0.07
2014-6-30,87,79,73,71,68,67,90,70,53,29.88,29.72,7,3,11,0.07
2014-7-1,91,82,72,71,68,66,89,66,48,29.72,29.52,11,5,21,0.00
2014-7-2,85,78,71,69,67,65,85,69,53,29.75,29.59,8,5,11,0.00
2014-7-3,71,69,64,67,64,59,91,84,77,29.89,29.75,3,2,9,0.01
2014-7-4,74,67,60,59,54,48,88,66,40,29.99,29.87,6,2,12,0.00
2014-7-5,84,70,58,58,52,48,79,55,29,30.02,29.88,7,4,11,0.00
2014-7-6,80,73,66,58,55,51,71,54,37,29.88,29.69,11,6,16,0.00
2014-7-7,76,71,67,69,63,55,92,76,56,29.68,29.48,8,5,13,0.11
2014-7-8,86,76,68,72,67,64,94,77,48,29.59,29.25,11,5,18,0.58
2014-7-9,74,68,62,64,57,52,85,69,47,29.84,29.42,10,6,11,0.58
2014-7-10,75,66,55,56,51,45,86,62,37,30.10,29.84,6,2,12,0.00
2014-7-11,80,68,54,57,54,51,92,65,39,30.17,30.07,5,1,8,0.00
2014-7-12,85,71,55,61,57,51,91,63,41,30.11,29.91,5,1,6,0.00
2014-7-13,76,71,64,71,66,60,95,85,73,29.91,29.59,9,4,13,0.30
2014-7-14,76,70,64,67,59,52,92,71,47,29.80,29.71,4,1,7,0.30
2014-7-15,75,67,62,69,64,60,95,88,79,29.72,29.59,5,1,7,0.62
2014-7-16,74,68,60,64,57,54,88,69,52,29.79,29.63,8,4,12,0.00
2014-7-17,73,65,55,57,55,52,93,72,47,29.99,29.80,5,2,10,0.00
2014-7-18,80,68,57,57,54,48,88,63,33,30.13,29.99,5,2,7,0.00
2014-7-19,78,68,55,63,57,52,90,69,45,30.17,30.06,4,1,7,0.00
2014-7-20,80,71,64,67,62,59,95,75,53,30.06,29.98,5,1,6,0.04
2014-7-21,85,75,65,67,64,61,95,71,50,30.06,29.98,5,2,6,0.04
2014-7-22,86,76,65,66,64,62,92,68,49,30.04,29.77,5,2,7,0.00
2014-7-23,77,73,66,72,65,54,97,77,61,29.82,29.68,8,4,10,1.51
2014-7-24,73,65,58,54,50,48,74,59,42,29.91,29.82,6,3,9,0.00
2014-7-25,62,60,59,56,55,53,90,83,73,29.87,29.86,4,3,5,0.00
2014-7-26,77,70,64,65,63,60,96,78,58,29.78,29.55,6,2,22,0.46
2014-7-27,79,69,63,67,64,62,95,85,64,29.58,29.51,5,2,16,0.00
2014-7-28,64,62,61,62,59,54,95,90,75,29.63,29.54,7,4,11,0.45
2014-7-29,73,64,55,56,53,50,88,69,46,29.86,29.63,4,2,8,0.45
2014-7-30,75,65,55,59,55,52,91,72,47,29.91,29.84,5,2,15,0.00
2014-7-31,72,63,55,61,57,53,95,83,60,29.99,29.89,6,1,16,0.04
2014-8-1,81,68,56,63,59,54,92,74,49,30.05,29.99,6,2,12,0.04
2014-8-2,83,69,60,68,63,58,96,83,49,30.07,29.98,7,1,11,0.22
2014-8-3,80,71,60,68,63,59,97,78,50,30.03,29.93,3,1,7,0.22
2014-8-4,84,72,65,67,64,57,93,76,42,29.97,29.89,4,1,7,0.01
2014-8-5,78,70,63,66,62,57,94,78,56,29.92,29.85,5,2,7,0.01
2014-8-6,79,68,56,60,54,49,94,66,36,29.88,29.80,3,1,7,0.00
2014-8-7,76,68,59,58,55,50,92,66,40,29.93,29.83,7,2,9,0.00
2014-8-8,80,70,56,59,56,52,92,65,38,30.02,29.93,4,2,7,0.00
2014-8-9,84,71,59,64,58,53,93,67,35,30.06,30.00,3,1,7,0.00
2014-8-10,85,72,60,64,59,54,91,68,36,30.08,30.00,3,1,7,0.00
2014-8-11,85,73,60,67,62,58,94,72,46,30.03,29.90,4,1,7,0.00
2014-8-12,75,69,62,65,61,56,94,78,52,29.92,29.72,4,0,7,0.18
2014-8-13,77,69,63,68,62,55,96,81,51,29.71,29.57,8,2,12,0.92
2014-8-14,63,58,54,56,50,46,91,77,58,29.74,29.62,8,4,11,0.01
2014-8-15,62,58,55,55,53,50,94,84,69,29.77,29.73,7,3,13,0.03
2014-8-16,66,62,58,61,57,52,96,83,72,29.78,29.68,8,4,12,0.29
2014-8-17,72,64,58,60,58,55,96,81,59,29.84,29.68,5,2,9,0.31
2014-8-18,71,62,56,54,52,47,90,70,46,29.88,29.81,4,1,7,0.00
2014-8-19,74,62,49,56,52,47,95,74,46,29.87,29.80,4,1,7,0.00
2014-8-20,79,68,56,68,60,52,96,79,60,29.91,29.82,6,2,8,0.38
2014-8-21,76,69,65,70,66,64,96,93,80,29.92,29.87,5,1,10,0.69
2014-8-22,75,67,63,65,63,62,96,87,70,30.00,29.91,7,2,11,0.69
2014-8-23,77,69,62,64,61,59,94,79,56,30.06,30.00,7,2,8,0.00
2014-8-24,83,70,59,66,61,57,94,76,44,30.13,30.04,2,0,7,0.00
2014-8-25,84,72,60,65,62,58,95,74,48,30.11,30.02,3,1,7,0.00